Weather in Kug

Russia / Republic of Dagestan     41°46′14″N   47°57′51″E
temp.,
°C
wind,
m/s
gust,
m/s
humid.,
%
clouds,
%
prec.,
mm/h
press.,
hPa
HPBL,
m
13 june, sun
sun1300:00+14w22820 0.0 101312
03:00+13w22771 0.0 101313
06:00+17w11694 0.0 101295
09:00+21ene32570 0.0 1010935
12:00+23ene424851 0.1 10091605
15:00+21ene335863 0.9 10101259
18:00+19nne126945 0.5 1011448
21:00+15wsw228499 1.1 101315
14 june, mon
mon1400:00+16wnw2277100 0.0 101118
03:00+15w22755 0.0 101214
06:00+17wnw01680 0.0 1012114
09:00+20e326457 0.0 10121034
12:00+22e326181 0.1 10111312
15:00+21e326388 0.2 10121009
18:00+21e21684 0.0 1012394
21:00+15wsw22860 0.0 101311
15 june, tue
tue1500:00+16w32670 0.0 101216
03:00+15w32590 0.0 101116
06:00+20w22500 0.0 101053
09:00+25ese32390 0.0 1008607
12:00+28ene42381 0.0 1006925
15:00+27ene42475 0.0 1007809
18:00+22n22650 0.0 1009320
21:00+18w32800 0.0 101117
16 june, wed
wed1600:00+18w32700 0.0 101118
03:00+17w22650 0.0 101113
06:00+21wsw11570 0.0 101170
09:00+24ese32490 0.0 1010707
12:00+28e44400 0.0 10091069
15:00+27e33420 0.0 1009878
18:00+25ese22550 0.0 1009187
21:00+20w22670 0.0 101013
17 june, thu
thu1700:00+20w32590 0.0 101016
03:00+19wnw22580 0.0 101113
06:00+22w11560 0.0 101182
09:00+26ese34450 0.0 1009748
12:00+30se57280 0.0 10081468
15:00+30e25270 0.0 10071027
18:00+27n22370 0.0 100761
21:00+21wnw32440 0.0 101016